| time (UTC) | temp F | wind direction | speed MPH | gust MPH | rain 1hr in | rain 24hr in | rain mn in | humidity % | barometer mb |
| 20260504040411 | 52 | 242 | 5.0 | 13.0 | 0.00 | 0.00 | 0.00 | 92 | 1011.3 |
| 20260504035858 | 52 | 263 | 5.0 | 11.0 | 0.00 | 0.00 | 0.00 | 92 | 1011.3 |
| 20260504035345 | 52 | 0 | 5.0 | 17.0 | 0.00 | 0.00 | 0.00 | 92 | 1011.1 |
| 20260504034833 | 51 | 246 | 5.0 | 17.0 | 0.00 | 0.00 | 0.00 | 92 | 1011.0 |
| 20260504034319 | 51 | 0 | 1.0 | 17.0 | 0.00 | 0.00 | 0.00 | 92 | 1011.1 |
| 20260504033806 | 51 | 0 | 2.0 | 14.0 | 0.00 | 0.00 | 0.00 | 92 | 1010.9 |
| 20260504033253 | 51 | 239 | 4.0 | 14.0 | 0.00 | 0.00 | 0.00 | 92 | 1010.8 |
| 20260504032740 | 51 | 214 | 4.0 | 13.0 | 0.00 | 0.00 | 0.00 | 92 | 1010.7 |
| 20260504032228 | 51 | 288 | 2.0 | 13.0 | 0.00 | 0.00 | 0.00 | 92 | 1010.5 |
| 20260504031715 | 51 | 273 | 4.0 | 13.0 | 0.00 | 0.00 | 0.00 | 92 | 1010.6 |
| 20260504031201 | 51 | 257 | 2.0 | 15.0 | 0.00 | 0.00 | 0.00 | 92 | 1010.6 |
| 20260504030649 | 51 | 270 | 5.0 | 15.0 | 0.00 | 0.00 | 0.00 | 92 | 1010.5 |
| 20260504030135 | 51 | 260 | 7.0 | 15.0 | 0.00 | 0.00 | 0.00 | 92 | 1010.6 |
| 20260504025626 | 51 | 278 | 1.0 | 14.0 | 0.00 | 0.00 | 0.00 | 92 | 1010.5 |
| 20260504025109 | 51 | 284 | 6.0 | 14.0 | 0.00 | 0.00 | 0.00 | 92 | 1010.4 |
| 20260504024557 | 51 | 302 | 3.0 | 13.0 | 0.00 | 0.00 | 0.00 | 92 | 1010.5 |
| 20260504024043 | 51 | 302 | 5.0 | 13.0 | 0.00 | 0.00 | 0.00 | 92 | 1010.4 |
| 20260504023531 | 51 | 263 | 2.0 | 13.0 | 0.00 | 0.00 | 0.00 | 92 | 1010.4 |
| 20260504023017 | 51 | 245 | 7.0 | 11.0 | 0.00 | 0.00 | 0.00 | 92 | 1010.4 |
| 20260504022504 | 51 | 256 | 3.0 | 13.0 | 0.00 | 0.00 | 0.00 | 92 | 1010.3 |
| 20260504021951 | 51 | 270 | 5.0 | 13.0 | 0.00 | 0.00 | 0.00 | 91 | 1010.1 |
| 20260504021438 | 51 | 186 | 4.0 | 13.0 | 0.00 | 0.00 | 0.00 | 91 | 1010.1 |
| 20260504020412 | 51 | 267 | 7.0 | 11.0 | 0.00 | 0.00 | 0.00 | 91 | 1010.1 |
| 20260504015859 | 52 | 242 | 6.0 | 14.0 | 0.00 | 0.00 | 0.00 | 91 | 1010.0 |
| 20260504015346 | 52 | 270 | 5.0 | 14.0 | 0.00 | 0.00 | 0.00 | 91 | 1009.9 |
| 20260504014833 | 52 | 280 | 7.0 | 14.0 | 0.00 | 0.00 | 0.00 | 91 | 1009.8 |
| 20260504014320 | 52 | 275 | 7.0 | 11.0 | 0.00 | 0.00 | 0.00 | 91 | 1009.8 |
| 20260504013807 | 52 | 249 | 1.0 | 4.0 | 0.00 | 0.00 | 0.00 | 91 | 1009.7 |
| 20260504013254 | 52 | 211 | 3.0 | 13.0 | 0.00 | 0.00 | 0.00 | 91 | 1009.8 |
| 20260504012741 | 52 | 273 | 4.0 | 13.0 | 0.00 | 0.00 | 0.00 | 91 | 1009.7 |
| 20260504012228 | 51 | 252 | 4.0 | 13.0 | 0.00 | 0.00 | 0.00 | 91 | 1009.7 |
| 20260504011715 | 51 | 252 | 0.0 | 8.0 | 0.00 | 0.00 | 0.00 | 91 | 1009.6 |
| 20260504010136 | 52 | 267 | 7.0 | 16.0 | 0.00 | 0.00 | 0.00 | 90 | 1009.9 |
| 20260504005110 | 52 | 277 | 3.0 | 8.0 | 0.00 | 0.00 | 0.00 | 90 | 1010.0 |
| 20260504004558 | 52 | 263 | 3.0 | 11.0 | 0.00 | 0.00 | 0.00 | 90 | 1009.9 |
| 20260504004044 | 52 | 319 | 1.0 | 11.0 | 0.00 | 0.00 | 0.00 | 90 | 1009.9 |
| 20260504003531 | 52 | 288 | 3.0 | 11.0 | 0.00 | 0.00 | 0.00 | 90 | 1010.0 |
| 20260504003018 | 52 | 246 | 6.0 | 9.0 | 0.00 | 0.00 | 0.00 | 89 | 1009.9 |
| 20260504001952 | 52 | 291 | 2.0 | 11.0 | 0.00 | 0.00 | 0.00 | 89 | 1009.7 |
| 20260504001439 | 52 | 305 | 3.0 | 11.0 | 0.00 | 0.00 | 0.00 | 89 | 1009.7 |
| 20260504000413 | 53 | 330 | 2.0 | 11.0 | 0.00 | 0.00 | 0.00 | 89 | 1009.6 |
| 20260503235900 | 53 | 228 | 4.0 | 11.0 | 0.00 | 0.00 | 0.00 | 88 | 1009.6 |
| 20260503235347 | 53 | 324 | 4.0 | 11.0 | 0.00 | 0.00 | 0.00 | 88 | 1009.6 |
| 20260503234834 | 53 | 282 | 3.0 | 10.0 | 0.00 | 0.00 | 0.00 | 88 | 1009.6 |
| 20260503234321 | 53 | 247 | 5.0 | 10.0 | 0.00 | 0.00 | 0.00 | 88 | 1009.6 |
| 20260503233808 | 53 | 242 | 5.0 | 7.0 | 0.00 | 0.00 | 0.00 | 88 | 1009.6 |
| 20260503233255 | 53 | 291 | 5.0 | 11.0 | 0.00 | 0.00 | 0.00 | 88 | 1009.6 |
| 20260503232742 | 53 | 274 | 5.0 | 11.0 | 0.00 | 0.00 | 0.00 | 88 | 1009.5 |
| 20260503232229 | 53 | 277 | 6.0 | 11.0 | 0.00 | 0.00 | 0.00 | 88 | 1009.4 |
| 20260503231716 | 54 | 253 | 6.0 | 10.0 | 0.00 | 0.00 | 0.00 | 87 | 1009.4 |
| 20260503231203 | 54 | 264 | 5.0 | 9.0 | 0.00 | 0.00 | 0.00 | 87 | 1009.5 |
| 20260503230650 | 53 | 235 | 6.0 | 12.0 | 0.00 | 0.00 | 0.00 | 88 | 1009.6 |
| 20260503225624 | 54 | 273 | 5.0 | 12.0 | 0.00 | 0.00 | 0.00 | 87 | 1009.7 |
| 20260503225111 | 54 | 242 | 6.0 | 11.0 | 0.00 | 0.00 | 0.00 | 87 | 1009.8 |
| 20260503224558 | 54 | 292 | 6.0 | 11.0 | 0.00 | 0.00 | 0.00 | 87 | 1009.8 |
| 20260503224045 | 54 | 327 | 5.0 | 11.0 | 0.00 | 0.00 | 0.00 | 87 | 1009.7 |
| 20260503223534 | 54 | 266 | 5.0 | 11.0 | 0.00 | 0.00 | 0.00 | 87 | 1009.9 |
| 20260503223019 | 54 | 249 | 5.0 | 10.0 | 0.00 | 0.00 | 0.00 | 87 | 1010.0 |
| 20260503221953 | 54 | 267 | 6.0 | 10.0 | 0.00 | 0.00 | 0.00 | 86 | 1010.0 |
| 20260503221440 | 55 | 267 | 5.0 | 10.0 | 0.00 | 0.00 | 0.00 | 86 | 1010.1 |
| 20260503220927 | 55 | 281 | 5.0 | 10.0 | 0.00 | 0.00 | 0.00 | 86 | 1010.1 |
| 20260503220414 | 55 | 266 | 6.0 | 8.0 | 0.00 | 0.00 | 0.00 | 86 | 1010.2 |
| 20260503215901 | 55 | 305 | 5.0 | 8.0 | 0.00 | 0.00 | 0.00 | 86 | 1010.2 |
| 20260503215348 | 55 | 270 | 5.0 | 9.0 | 0.00 | 0.00 | 0.00 | 86 | 1010.2 |
| 20260503214835 | 55 | 292 | 4.0 | 9.0 | 0.00 | 0.00 | 0.00 | 87 | 1010.2 |
| 20260503213809 | 56 | 299 | 5.0 | 7.0 | 0.00 | 0.00 | 0.00 | 86 | 1010.2 |
| 20260503213256 | 55 | 299 | 3.0 | 6.0 | 0.00 | 0.00 | 0.00 | 87 | 1010.2 |
| 20260503212743 | 55 | 301 | 3.0 | 7.0 | 0.00 | 0.00 | 0.00 | 87 | 1010.3 |
| 20260503212230 | 55 | 317 | 6.0 | 7.0 | 0.00 | 0.00 | 0.00 | 87 | 1010.3 |
| 20260503211717 | 55 | 310 | 5.0 | 7.0 | 0.00 | 0.00 | 0.00 | 87 | 1010.4 |
| 20260503211204 | 55 | 315 | 5.0 | 9.0 | 0.00 | 0.00 | 0.00 | 87 | 1010.4 |
| 20260503210651 | 55 | 298 | 5.0 | 9.0 | 0.00 | 0.00 | 0.00 | 87 | 1010.4 |
| 20260503210138 | 55 | 292 | 6.0 | 9.0 | 0.00 | 0.00 | 0.00 | 87 | 1010.4 |
| 20260503205112 | 55 | 289 | 6.0 | 7.0 | 0.00 | 0.00 | 0.00 | 87 | 1010.4 |
| 20260503204559 | 56 | 310 | 5.0 | 6.0 | 0.00 | 0.00 | 0.00 | 87 | 1010.3 |
| 20260503204047 | 57 | 329 | 4.0 | 6.0 | 0.00 | 0.00 | 0.00 | 87 | 1010.4 |
| 20260503203533 | 57 | 296 | 5.0 | 6.0 | 0.00 | 0.00 | 0.00 | 87 | 1010.4 |
| 20260503203020 | 57 | 0 | 0.0 | 0.0 | 0.00 | 0.00 | 0.00 | 88 | 1010.4 |
| 20260503202507 | 57 | 0 | 0.0 | 0.0 | 0.00 | 0.00 | 0.00 | 88 | 1010.4 |
| 20260503201954 | 56 | 0 | 0.0 | 3.0 | 0.00 | 0.00 | 0.00 | 89 | 1010.4 |
| 20260503201441 | 56 | 0 | 0.0 | 3.0 | 0.00 | 0.00 | 0.00 | 89 | 1010.4 |
| 20260503200928 | 55 | 0 | 0.0 | 3.0 | 0.00 | 0.00 | 0.00 | 90 | 1010.4 |
| 20260503200415 | 54 | 295 | 2.0 | 3.0 | 0.00 | 0.00 | 0.00 | 90 | 1010.4 |
| 20260503195902 | 54 | 268 | 2.0 | 6.0 | 0.00 | 0.00 | 0.00 | 90 | 1010.5 |
| 20260503195349 | 54 | 319 | 5.0 | 6.0 | 0.00 | 0.00 | 0.00 | 90 | 1010.6 |
| 20260503194836 | 53 | 305 | 3.0 | 6.0 | 0.00 | 0.00 | 0.00 | 90 | 1010.6 |
| 20260503194324 | 53 | 312 | 5.0 | 6.0 | 0.00 | 0.00 | 0.00 | 90 | 1010.6 |
| 20260503193810 | 53 | 0 | 0.0 | 6.0 | 0.00 | 0.00 | 0.00 | 90 | 1010.6 |
| 20260503193257 | 53 | 312 | 4.0 | 6.0 | 0.00 | 0.00 | 0.00 | 90 | 1010.6 |
| 20260503192231 | 54 | 305 | 5.0 | 8.0 | 0.00 | 0.00 | 0.00 | 90 | 1010.8 |
| 20260503191718 | 54 | 306 | 6.0 | 8.0 | 0.00 | 0.00 | 0.00 | 90 | 1010.9 |
| 20260503191205 | 55 | 306 | 5.0 | 8.0 | 0.00 | 0.00 | 0.00 | 90 | 1010.9 |
| 20260503190652 | 55 | 315 | 4.0 | 8.0 | 0.00 | 0.00 | 0.00 | 89 | 1011.0 |
| 20260503190139 | 56 | 303 | 4.0 | 5.0 | 0.00 | 0.00 | 0.00 | 90 | 1010.9 |
| 20260503185626 | 56 | 313 | 2.0 | 5.0 | 0.00 | 0.00 | 0.00 | 91 | 1011.0 |
| 20260503184600 | 55 | 0 | 0.0 | 6.0 | 0.00 | 0.00 | 0.00 | 91 | 1010.9 |
| 20260503184047 | 54 | 308 | 2.0 | 6.0 | 0.00 | 0.00 | 0.00 | 91 | 1011.0 |
| 20260503183534 | 54 | 285 | 2.0 | 6.0 | 0.00 | 0.00 | 0.00 | 91 | 1011.0 |
| 20260503183021 | 53 | 298 | 4.0 | 8.0 | 0.00 | 0.00 | 0.00 | 91 | 1011.0 |
| 20260503181442 | 54 | 298 | 4.0 | 7.0 | 0.00 | 0.00 | 0.00 | 92 | 1011.0 |
| 20260503180929 | 54 | 301 | 4.0 | 6.0 | 0.00 | 0.00 | 0.00 | 92 | 1010.9 |
| 20260503180416 | 54 | 303 | 4.0 | 6.0 | 0.00 | 0.00 | 0.00 | 92 | 1010.9 |
| 20260503175903 | 53 | 281 | 2.0 | 7.0 | 0.00 | 0.00 | 0.00 | 92 | 1010.9 |
| 20260503175350 | 53 | 306 | 2.0 | 7.0 | 0.00 | 0.00 | 0.00 | 92 | 1011.0 |
| 20260503174837 | 53 | 280 | 3.0 | 7.0 | 0.00 | 0.00 | 0.00 | 92 | 1010.9 |
| 20260503174324 | 53 | 287 | 3.0 | 7.0 | 0.00 | 0.00 | 0.00 | 92 | 1011.0 |
| 20260503173811 | 53 | 261 | 4.0 | 7.0 | 0.00 | 0.00 | 0.00 | 92 | 1011.0 |
| 20260503173258 | 53 | 306 | 1.0 | 7.0 | 0.00 | 0.00 | 0.00 | 92 | 1011.1 |
| 20260503172232 | 53 | 285 | 2.0 | 6.0 | 0.00 | 0.00 | 0.00 | 93 | 1011.0 |
| 20260503171719 | 52 | 284 | 3.0 | 6.0 | 0.00 | 0.00 | 0.00 | 92 | 1011.0 |
| 20260503170653 | 52 | 302 | 3.0 | 7.0 | 0.00 | 0.00 | 0.00 | 93 | 1011.0 |
| 20260503150653 | 51 | 0 | 0.0 | 0.0 | 0.00 | 0.00 | 0.00 | 93 | 1010.8 |
| 20260503150140 | 50 | 0 | 0.0 | 0.0 | 0.00 | 0.00 | 0.00 | 93 | 1010.8 |
| 20260503130654 | 46 | 0 | 0.0 | 0.0 | 0.00 | 0.00 | 0.00 | 93 | 1010.3 |
| 20260503130141 | 46 | 0 | 0.0 | 0.0 | 0.00 | 0.00 | 0.00 | 93 | 1010.3 |
| 20260503110655 | 46 | 0 | 0.0 | 0.0 | 0.00 | 0.00 | 0.00 | 93 | 1010.6 |
| 20260503110142 | 46 | 0 | 0.0 | 0.0 | 0.00 | 0.00 | 0.00 | 93 | 1010.6 |
| 20260503090143 | 46 | 0 | 0.0 | 0.0 | 0.00 | 0.00 | 0.00 | 92 | 1011.2 |
| 20260503081446 | 46 | 0 | 0.0 | 0.0 | 0.00 | 0.00 | 0.00 | 91 | 1011.5 |
| 20260503080933 | 46 | 0 | 0.0 | 0.0 | 0.00 | 0.00 | 0.00 | 91 | 1011.6 |
| 20260503080420 | 47 | 0 | 0.0 | 0.0 | 0.00 | 0.00 | 0.00 | 91 | 1011.6 |
| 20260503072749 | 47 | 0 | 0.0 | 0.0 | 0.00 | 0.00 | 0.00 | 91 | 1011.8 |
| 20260503072236 | 47 | 0 | 0.0 | 0.0 | 0.00 | 0.00 | 0.00 | 91 | 1011.8 |
| 20260503071723 | 47 | 0 | 0.0 | 0.0 | 0.00 | 0.00 | 0.00 | 91 | 1011.8 |
| 20260503071210 | 47 | 0 | 0.0 | 0.0 | 0.00 | 0.00 | 0.00 | 91 | 1011.9 |
| 20260503070657 | 47 | 0 | 0.0 | 0.0 | 0.00 | 0.00 | 0.00 | 91 | 1011.9 |
| 20260503054842 | 49 | 0 | 0.0 | 0.0 | 0.00 | 0.00 | 0.00 | 90 | 1012.2 |
| 20260503054329 | 49 | 0 | 0.0 | 0.0 | 0.00 | 0.00 | 0.00 | 90 | 1012.3 |
| 20260503053816 | 49 | 0 | 0.0 | 0.0 | 0.00 | 0.00 | 0.00 | 90 | 1012.3 |
| 20260503052750 | 49 | 0 | 0.0 | 0.0 | 0.00 | 0.00 | 0.00 | 90 | 1012.5 |
| 20260503052237 | 49 | 0 | 0.0 | 0.0 | 0.00 | 0.00 | 0.00 | 90 | 1012.5 |
| 20260503051724 | 49 | 0 | 0.0 | 0.0 | 0.00 | 0.00 | 0.00 | 90 | 1012.5 |
| 20260503051215 | 49 | 0 | 0.0 | 0.0 | 0.00 | 0.00 | 0.00 | 89 | 1012.6 |
| 20260503050658 | 50 | 0 | 0.0 | 0.0 | 0.00 | 0.00 | 0.00 | 89 | 1012.6 |
| 20260503050147 | 50 | 0 | 0.0 | 0.0 | 0.00 | 0.00 | 0.00 | 89 | 1012.7 |
| 20260503045632 | 50 | 0 | 0.0 | 0.0 | 0.00 | 0.00 | 0.00 | 89 | 1012.5 |
| 20260503045119 | 50 | 0 | 0.0 | 0.0 | 0.00 | 0.00 | 0.00 | 89 | 1012.4 |
| 20260503044606 | 50 | 0 | 0.0 | 0.0 | 0.00 | 0.00 | 0.00 | 89 | 1012.4 |
| 20260503044053 | 50 | 0 | 0.0 | 0.0 | 0.00 | 0.00 | 0.00 | 89 | 1012.3 |
| 20260503043540 | 51 | 0 | 0.0 | 0.0 | 0.00 | 0.00 | 0.00 | 89 | 1012.4 |
| 20260503043027 | 51 | 0 | 0.0 | 0.0 | 0.00 | 0.00 | 0.00 | 88 | 1012.3 |
| 20260503042001 | 51 | 0 | 0.0 | 0.0 | 0.00 | 0.00 | 0.00 | 88 | 1012.2 |
| 20260503041448 | 51 | 0 | 0.0 | 0.0 | 0.00 | 0.00 | 0.00 | 88 | 1012.1 |
| 20260503040934 | 51 | 0 | 0.0 | 0.0 | 0.00 | 0.00 | 0.00 | 88 | 1012.1 |